Погода в Терновом

Россия / Тамбовская область     53°00′09″N   40°22′02″E
темп.,
°C
ветер,
м/с
пор.,
м/с
влажн.,
%
обл.,
%
осадки,
мм/ч
давл.,
гПа
погр.,
м
17 мая, пн
пн1700:00+17всв359280 1.3 101284
03:00+16в359440 1.3 101283
06:00+16в37905 0.0 1012144
09:00+23юв476074 0.0 1012345
12:00+26юв6944100 0.0 1012967
15:00+26юв6114993 0.0 10111209
18:00+24юв61260100 0.0 1011819
21:00+20вюв5166462 0.0 1010431
18 мая, вт
вт1800:00+19вюв5166196 0.0 1010391
03:00+17вюв516581 0.0 1010376
06:00+15вюв4126884 0.0 1010258
09:00+21юв510516 0.0 1010446
12:00+26вюв610403 0.0 1009815
15:00+27вюв7134770 0.0 10081336
18:00+24юв51260100 0.0 1008895
21:00+19юв413685 0.0 1008411
19 мая, ср
ср1900:00+16юв378166 0.0 1009148
03:00+14ссв119210 0.0 100811
06:00+16ссв0085100 0.0 100840
09:00+20ю2370100 0.0 1010548
12:00+24вюв4657100 0.0 1009837
15:00+24юв5951100 0.0 10091186
18:00+24в386588 0.1 1007900
21:00+20в41280100 0.6 1006363
20 мая, чт
чт2000:00+14с3595100 3.9 1007136
03:00+15вюв3695100 3.9 1007171
06:00+15ююв359581 0.3 1006314
09:00+16ю578031 0.4 1008791
12:00+19ю686444 0.4 10091391
15:00+19ю6966100 0.8 10101253
18:00+18ю597325 0.1 10101221
21:00+14ю39904 0.2 1012298
21 мая, пт
пт2100:00+12ю37976 0.0 1013169
03:00+11ююв259791 0.0 101293
06:00+13ююв399092 0.0 1013275
09:00+14ю3884100 0.0 1014518
12:00+16ююз3879100 0.1 1014663
15:00+19ююз596485 0.8 10131416
18:00+17зюз5979100 1.1 1014956
21:00+12зюз279290 1.2 1016162